Wind_Speed
16 18 19 20 21 23 25 27 28 34 34 33 34 34 33 32 32 33 33 34 34 34 34 35 35 35 36 37 38 39 41 43 43 44 45 46 45 45 45 44 43 42 40 39
18 18 18 21 23 24 26 27 28 31 31 30 32 33 31 30 30 31 32 33 34 34 34 34 34 34 34 35 36 37 38 39 40 41 43 44 45 45 45 44 44 44 42 39
18 18 19 21 24 24 25 26 26 28 29 29 29 30 30 28 27 28 29 29 30 30 31 31 31 31 31 32 33 33 34 35 36 37 38 39 41 42 43 43 43 43 43 40
17 18 20 22 23 23 24 24 24 25 25 26 26 27 29 28 26 27 26 26 26 26 26 26 26 26 27 28 28 29 29 31 32 33 34 35 36 38 39 40 41 41 41 40
15 16 18 20 20 21 21 22 21 22 21 21 22 23 28 26 25 25 25 24 23 22 22 22 23 23 23 23 24 25 25 26 26 27 28 29 31 34 35 37 38 38 37 37
14 15 16 17 17 18 19 19 19 18 18 19 19 21 26 24 24 23 23 23 21 20 19 19 20 19 19 19 19 19 19 20 21 22 23 25 26 28 30 33 34 34 34 34
10 11 12 14 16 17 17 18 17 16 17 19 20 21 22 21 21 21 21 20 19 17 17 17 17 17 17 17 17 16 15 16 16 17 18 19 21 22 24 26 29 30 31 31
10 10 11 13 15 16 16 15 15 12 9 14 17 18 18 19 19 19 19 18 17 16 15 15 16 16 16 15 15 14 14 14 14 13 13 14 14 16 18 20 22 25 27 28
7 9 11 13 14 15 15 14 13 12 10 10 15 18 17 17 18 18 17 17 16 15 15 16 16 17 16 16 14 14 14 14 13 12 11 10 9 10 12 14 17 19 21 23
6 8 10 12 13 13 14 13 13 12 12 9 12 17 19 18 17 17 17 16 16 16 17 17 17 18 18 18 17 16 16 15 14 13 12 9 8 7 6 7 9 13 16 19
6 8 9 11 13 15 14 14 13 13 13 12 12 15 17 17 16 16 16 15 16 16 17 18 17 18 19 20 19 19 18 17 16 15 13 11 9 8 7 6 5 7 10 12
7 9 10 12 14 14 15 15 14 14 13 13 14 15 15 16 16 16 16 16 17 17 18 18 18 18 19 19 20 19 19 19 18 18 16 14 12 9 8 7 6 6 7 9
8 9 10 12 13 14 15 15 15 15 14 14 15 15 15 16 16 17 17 17 17 18 19 19 20 20 20 20 19 19 19 19 18 17 17 16 14 13 11 10 8 7 6 6
10 10 11 13 14 15 15 15 15 15 15 15 15 15 16 16 16 17 18 18 18 18 19 20 21 21 21 21 20 20 20 20 20 20 19 18 16 14 12 11 11 9 8 7
10 11 11 12 13 14 15 16 15 15 15 14 15 15 15 15 16 17 17 18 19 19 20 21 21 22 23 23 22 21 21 21 20 20 20 20 19 17 15 14 13 12 10 9
10 11 12 12 12 13 14 15 16 15 15 14 14 14 14 15 15 16 16 17 18 19 19 20 21 22 22 22 23 22 22 22 21 21 21 20 19 18 17 17 15 14 12 11
9 10 12 12 12 12 13 15 15 15 14 14 14 14 14 14 14 15 16 17 17 18 19 20 21 21 22 22 22 22 22 22 22 22 21 21 20 19 18 18 18 17 16 14
7 9 11 12 13 13 13 13 14 15 14 14 14 14 14 14 14 15 15 16 16 17 18 18 19 20 21 21 22 22 22 22 22 22 22 21 21 20 20 19 19 19 18 16
6 7 9 10 12 12 12 12 12 13 13 13 13 13 13 13 13 14 14 16 16 16 17 17 18 19 20 21 21 22 22 22 22 22 22 22 22 22 21 20 20 20 19 18
5 6 7 9 10 11 11 11 11 12 12 13 13 12 12 12 13 13 14 15 15 16 16 16 17 17 18 19 20 21 22 22 22 22 23 23 23 22 22 22 22 22 21 19
6 7 7 8 8 9 10 10 11 11 11 12 12 12 12 12 12 13 13 14 15 15 15 16 16 16 17 18 19 20 21 22 22 22 23 24 24 24 23 23 23 23 22 21
8 8 8 9 8 8 9 9 9 10 10 10 11 11 12 12 12 13 13 14 14 15 15 15 15 15 16 17 18 18 19 21 22 22 23 24 24 24 24 24 24 24 23 23
11 11 11 10 10 10 9 9 9 9 9 9 10 10 11 11 12 13 13 13 14 14 14 14 14 14 15 15 16 17 18 19 21 21 22 23 24 24 25 24 25 24 24 24
13 13 13 13 12 12 12 11 11 10 10 10 10 10 10 11 11 12 12 12 13 13 13 13 13 13 14 14 15 15 16 18 19 20 21 22 23 23 24 24 25 25 25 24
16 15 15 15 15 14 14 13 13 13 12 12 11 11 10 11 11 11 11 11 12 12 12 12 12 13 13 13 13 14 14 15 16 18 19 20 21 22 23 24 24 24 25 24
19 19 18 18 17 17 16 15 15 15 14 14 13 13 12 12 11 11 11 11 11 11 12 12 12 12 12 12 12 12 12 13 13 15 16 17 18 20 21 22 23 23 24 24
Wind_Direction
268 275 281 287 290 291 292 292 290 290 299 300 300 301 302 300 298 296 295 294 294 293 291 290 288 286 284 282 279 277 275 273 271 270 269 268 268 268 267 265 264 264 266 266
271 276 285 289 291 293 294 294 294 294 300 302 302 302 302 301 299 297 296 295 295 294 293 292 291 290 287 284 282 279 277 274 273 272 271 269 268 267 266 264 262 263 263 263
273 286 292 293 296 299 298 299 301 302 305 304 304 305 305 307 305 301 300 298 298 297 296 294 293 292 291 289 286 282 278 276 274 272 270 268 266 265 263 262 261 261 262 261
279 290 295 299 301 304 303 306 306 306 307 309 313 313 312 318 316 312 310 307 305 303 302 300 299 298 297 295 292 288 284 280 276 273 270 268 266 265 262 260 259 258 260 259
288 295 300 303 307 309 309 311 311 310 311 312 316 317 315 324 322 319 318 316 314 312 310 308 307 305 304 302 298 295 291 286 280 276 272 270 266 264 261 259 257 256 256 256
296 302 306 311 315 316 317 317 316 316 321 325 324 321 320 329 325 325 324 324 322 320 320 320 319 317 313 312 310 307 302 296 288 281 277 273 269 265 261 257 254 253 253 253
300 308 316 321 324 326 327 328 332 336 333 322 322 320 326 329 328 330 331 333 333 333 334 334 334 331 328 325 325 324 318 311 305 296 287 280 273 268 263 257 252 250 249 248
323 332 337 335 336 337 338 338 339 335 316 310 323 330 337 334 334 337 340 343 345 348 351 353 353 350 347 344 340 337 337 331 325 318 307 297 286 275 264 256 251 249 246 243
321 338 346 347 348 347 348 349 348 345 346 342 334 345 348 345 346 348 351 356 2 7 8 10 9 9 10 7 3 360 360 356 350 341 333 323 311 295 272 259 250 246 241 239
345 353 1 1 1 2 2 2 2 4 7 5 342 348 355 356 357 1 3 8 15 19 21 22 23 25 25 24 22 19 13 10 6 5 3 355 343 330 304 273 256 245 240 240
11 12 18 14 13 14 15 16 16 15 18 11 0 359 1 4 7 9 14 20 24 26 25 26 28 29 30 31 29 26 24 21 19 19 18 11 4 353 344 322 291 260 250 249
31 24 26 27 25 24 23 23 22 20 20 18 14 14 13 16 17 21 25 28 31 32 30 31 30 29 27 27 27 25 25 25 25 28 26 24 19 10 1 352 333 306 282 267
40 32 32 37 35 30 27 28 27 26 24 25 24 25 24 24 27 30 32 34 35 34 34 34 33 31 28 26 26 26 27 28 29 28 29 29 26 25 21 15 2 343 323 299
42 37 35 35 33 32 30 30 29 28 28 31 32 32 32 34 36 36 37 38 38 38 36 35 34 32 32 31 32 32 32 33 34 34 33 32 31 29 25 20 14 7 356 339
42 38 37 37 35 33 32 32 31 30 31 33 35 36 36 38 38 37 39 40 40 39 37 35 34 35 36 37 38 37 35 35 34 33 33 33 34 34 33 29 24 18 12 3
42 38 37 39 38 36 34 33 32 33 34 35 35 37 37 38 37 37 36 35 35 34 33 33 34 36 37 38 38 38 37 37 36 35 34 34 34 34 33 29 26 22 15 8
38 36 35 38 38 37 35 32 32 32 33 33 34 36 36 37 36 33 32 32 32 32 33 34 34 35 35 35 36 36 35 34 34 33 32 32 31 30 28 26 23 21 17 12
28 29 31 32 35 36 32 30 29 30 31 31 32 32 33 32 31 31 31 31 30 30 30 30 31 32 32 33 33 33 33 32 32 31 31 30 29 27 25 24 22 19 16 14
8 14 18 21 27 31 29 26 25 25 26 27 27 27 28 28 28 29 28 28 28 28 27 27 28 29 29 30 30 29 30 30 30 29 29 28 27 26 25 24 22 20 18 17
341 351 360 7 13 19 22 21 22 23 25 24 26 25 24 23 23 22 21 22 23 24 24 24 25 25 26 27 27 28 28 29 29 29 28 27 26 25 25 24 22 20 20 20
313 323 332 343 355 4 8 11 14 16 19 21 23 22 21 20 18 16 15 15 17 18 20 21 22 23 24 24 26 27 28 29 29 29 28 28 27 27 26 25 24 24 25 25
297 303 309 316 327 339 343 350 358 3 6 8 11 12 14 14 14 12 12 13 14 15 17 19 20 21 22 23 25 26 27 28 28 29 29 29 29 29 28 28 28 29 31 32
289 295 299 303 308 312 319 324 329 337 346 351 354 356 359 2 4 6 8 9 10 12 14 16 17 19 20 21 22 24 26 26 27 28 29 29 30 30 30 31 32 33 35 37
283 286 289 292 294 298 301 304 309 312 318 327 333 339 343 348 352 356 358 1 4 6 9 11 12 13 15 16 18 20 22 24 26 27 28 29 30 31 33 34 35 36 38 40
279 279 281 283 285 288 291 294 297 300 303 306 311 318 325 330 335 340 345 349 353 356 359 2 5 8 9 10 11 14 17 20 23 25 28 29 31 32 34 36 37 39 40 42
274 274 275 276 279 281 283 286 288 291 293 296 298 301 306 312 318 323 329 334 339 343 348 352 356 359 2 4 5 7 10 14 17 21 24 27 29 32 34 36 38 40 42 44
Height
5906 5906 5905 5904 5903 5902 5900 5898 5895 5888 5887 5883 5879 5875 5873 5870 5866 5863 5859 5856 5853 5851 5848 5845 5843 5841 5839 5837 5835 5834 5833 5832 5833 5833 5834 5835 5836 5838 5840 5842 5844 5846 5848 5850
5903 5903 5903 5901 5900 5898 5896 5893 5890 5884 5882 5878 5873 5869 5866 5863 5860 5856 5853 5849 5846 5843 5840 5837 5834 5832 5829 5827 5825 5824 5822 5822 5822 5822 5822 5823 5824 5826 5828 5831 5833 5836 5839 5841
5900 5900 5899 5898 5896 5894 5891 5888 5885 5880 5876 5872 5869 5864 5860 5857 5854 5850 5846 5843 5839 5836 5833 5830 5827 5824 5821 5818 5816 5814 5813 5812 5812 5812 5812 5812 5813 5815 5817 5820 5822 5826 5829 5832
5898 5897 5896 5894 5891 5889 5886 5883 5880 5876 5872 5867 5864 5859 5854 5851 5848 5844 5841 5837 5834 5830 5827 5823 5820 5817 5814 5811 5808 5806 5804 5803 5802 5801 5801 5802 5803 5804 5806 5809 5812 5815 5818 5822
5895 5895 5893 5891 5888 5885 5882 5879 5875 5872 5868 5865 5861 5857 5851 5848 5844 5840 5836 5832 5829 5825 5821 5818 5815 5811 5808 5804 5801 5799 5797 5795 5793 5793 5792 5792 5793 5794 5796 5798 5801 5805 5808 5812
5894 5892 5891 5888 5885 5882 5879 5875 5872 5868 5865 5862 5859 5856 5850 5847 5842 5838 5834 5829 5825 5821 5817 5814 5810 5807 5803 5800 5796 5794 5791 5789 5786 5785 5784 5784 5784 5785 5786 5789 5791 5795 5798 5802
5892 5890 5888 5886 5883 5880 5876 5873 5869 5865 5862 5860 5858 5854 5851 5845 5841 5836 5832 5827 5823 5819 5815 5811 5808 5804 5800 5797 5793 5790 5787 5784 5782 5780 5778 5777 5777 5777 5778 5780 5783 5786 5790 5793
5890 5888 5887 5884 5881 5878 5874 5871 5868 5866 5863 5860 5856 5852 5850 5844 5840 5835 5830 5826 5822 5818 5814 5810 5806 5802 5799 5795 5791 5788 5785 5782 5779 5776 5774 5773 5772 5772 5773 5773 5776 5779 5782 5785
5890 5888 5886 5883 5879 5876 5873 5869 5867 5864 5861 5859 5855 5851 5848 5843 5839 5834 5830 5826 5822 5818 5814 5810 5807 5803 5799 5795 5791 5788 5784 5781 5778 5775 5773 5771 5770 5769 5769 5769 5770 5773 5775 5778
5889 5888 5885 5883 5880 5876 5873 5869 5866 5863 5860 5858 5856 5851 5848 5843 5839 5835 5831 5827 5823 5819 5815 5812 5808 5804 5800 5796 5792 5789 5785 5781 5778 5775 5772 5770 5769 5768 5767 5767 5768 5769 5771 5773
5889 5888 5886 5883 5879 5876 5873 5870 5866 5863 5860 5858 5855 5854 5848 5844 5840 5836 5832 5828 5825 5821 5818 5814 5810 5807 5803 5798 5795 5791 5787 5783 5779 5776 5774 5772 5770 5769 5768 5767 5767 5767 5768 5769
5889 5888 5885 5883 5880 5876 5873 5870 5867 5865 5862 5859 5856 5856 5849 5846 5842 5838 5834 5830 5827 5824 5820 5816 5813 5809 5805 5801 5798 5794 5790 5786 5782 5779 5776 5774 5772 5770 5769 5768 5767 5767 5767 5767
5889 5888 5886 5883 5882 5879 5875 5872 5869 5866 5863 5860 5857 5857 5851 5848 5844 5840 5837 5833 5830 5827 5823 5819 5816 5812 5808 5804 5800 5797 5793 5789 5786 5782 5779 5777 5774 5772 5770 5769 5768 5767 5766 5765
5890 5889 5887 5885 5882 5879 5876 5873 5870 5868 5865 5862 5859 5857 5854 5850 5847 5844 5840 5837 5833 5830 5827 5823 5819 5815 5811 5807 5803 5799 5796 5792 5789 5786 5783 5780 5777 5775 5772 5771 5769 5767 5766 5765
5891 5890 5887 5885 5883 5880 5878 5875 5872 5870 5867 5864 5862 5859 5856 5853 5850 5847 5844 5840 5837 5834 5830 5827 5823 5819 5815 5811 5807 5803 5800 5796 5793 5790 5786 5783 5780 5777 5775 5773 5770 5768 5766 5765
5892 5891 5889 5887 5884 5882 5880 5877 5875 5872 5869 5867 5864 5862 5859 5856 5853 5851 5847 5844 5841 5838 5834 5831 5827 5823 5819 5815 5811 5808 5804 5800 5797 5794 5790 5787 5784 5781 5778 5775 5772 5770 5767 5765
5893 5892 5890 5888 5886 5884 5882 5880 5877 5874 5872 5869 5867 5865 5862 5859 5857 5854 5851 5848 5844 5841 5838 5834 5831 5827 5824 5820 5816 5812 5808 5805 5801 5798 5794 5791 5787 5784 5781 5777 5774 5771 5768 5765
5894 5893 5891 5889 5888 5885 5886 5881 5879 5877 5874 5872 5869 5867 5864 5862 5859 5856 5854 5851 5848 5844 5841 5838 5835 5831 5827 5824 5820 5816 5812 5809 5805 5801 5798 5794 5790 5787 5783 5780 5776 5772 5769 5766
5894 5894 5892 5890 5888 5887 5886 5883 5881 5879 5877 5874 5871 5869 5866 5864 5862 5859 5856 5853 5850 5847 5844 5841 5838 5835 5831 5827 5824 5820 5816 5812 5809 5805 5801 5797 5793 5789 5786 5782 5778 5774 5770 5767
5895 5894 5893 5891 5889 5888 5888 5885 5882 5881 5879 5876 5873 5871 5868 5866 5864 5862 5859 5856 5853 5850 5847 5844 5841 5838 5834 5831 5827 5824 5820 5816 5812 5808 5804 5800 5796 5792 5788 5784 5780 5776 5772 5768
5894 5893 5893 5891 5890 5889 5888 5885 5884 5883 5882 5877 5875 5872 5870 5868 5866 5864 5861 5858 5855 5852 5849 5846 5843 5840 5837 5834 5831 5827 5823 5820 5816 5812 5808 5804 5799 5795 5791 5787 5783 5778 5774 5770
5893 5892 5892 5891 5890 5891 5887 5885 5885 5883 5880 5878 5876 5874 5872 5869 5867 5865 5862 5859 5857 5854 5851 5848 5846 5843 5840 5837 5834 5830 5827 5823 5819 5815 5811 5807 5803 5799 5795 5790 5786 5782 5777 5773
5891 5891 5890 5890 5891 5888 5886 5885 5884 5882 5880 5878 5877 5875 5872 5870 5868 5866 5863 5861 5858 5856 5853 5850 5848 5845 5842 5839 5836 5833 5830 5826 5823 5819 5815 5811 5807 5803 5799 5794 5790 5786 5782 5778
5889 5888 5887 5887 5887 5886 5885 5884 5882 5881 5880 5878 5876 5875 5873 5871 5869 5866 5864 5862 5859 5857 5854 5852 5849 5847 5844 5841 5838 5835 5832 5829 5826 5822 5819 5815 5811 5807 5803 5799 5795 5791 5787 5783
5885 5885 5884 5884 5883 5883 5882 5881 5880 5879 5878 5877 5875 5873 5872 5870 5868 5866 5864 5862 5860 5858 5855 5853 5850 5848 5845 5843 5840 5837 5835 5832 5829 5826 5822 5819 5815 5812 5808 5804 5800 5796 5792 5788
5880 5880 5880 5880 5879 5879 5879 5878 5877 5876 5875 5874 5873 5872 5870 5869 5867 5865 5863 5862 5860 5858 5855 5853 5851 5848 5846 5844 5841 5839 5836 5833 5831 5828 5825 5822 5819 5815 5812 5808 5805 5801 5797 5794